Time,TemperatureF,DewpointF,PressureIn,WindDirection,WindDirectionDegrees,WindSpeedMPH,WindSpeedGustMPH,Humidity,HourlyPrecipIn,Conditions,Clouds,dailyrainin,SoftwareType,DateUTC
2013-09-01 00:01:00,70.3,60.5,29.96,SE,135,0.0,0.0,71,0.00,,---,0.00,VWS V13.01,2013-09-01 04:01:00,
2013-09-01 00:02:00,70.3,60.5,29.96,SE,135,0.0,0.0,71,0.00,,---,0.00,VWS V13.01,2013-09-01 04:02:00,
2013-09-01 00:04:00,70.3,60.5,29.96,SE,135,0.0,0.0,71,0.00,,---,0.00,VWS V13.01,2013-09-01 04:04:00,
2013-09-01 00:09:00,70.3,60.5,29.96,SE,135,0.0,0.0,71,0.00,,---,0.00,VWS V13.01,2013-09-01 04:09:00,
2013-09-01 00:14:00,70.2,60.3,29.96,SE,135,0.0,0.0,71,0.00,,---,0.00,VWS V13.01,2013-09-01 04:14:00,
2013-09-01 00:19:00,70.2,60.3,29.96,SE,135,0.0,0.0,71,0.00,,---,0.00,VWS V13.01,2013-09-01 04:19:00,
2013-09-01 00:24:00,70.2,60.3,29.96,SE,135,0.0,0.0,71,0.00,,---,0.00,VWS V13.01,2013-09-01 04:24:00,
2013-09-01 00:29:00,70.0,60.2,29.96,SE,135,0.0,0.0,71,0.00,,---,0.00,VWS V13.01,2013-09-01 04:29:00,
2013-09-01 00:34:00,70.0,60.2,29.96,SE,135,0.0,0.0,71,0.00,,---,0.00,VWS V13.01,2013-09-01 04:34:00,
2013-09-01 00:39:00,69.8,60.0,29.96,SE,135,0.0,0.0,71,0.00,,---,0.00,VWS V13.01,2013-09-01 04:39:00,
2013-09-01 00:44:00,69.8,60.0,29.96,SE,135,0.0,0.0,71,0.00,,---,0.00,VWS V13.01,2013-09-01 04:44:00,
2013-09-01 00:49:00,69.8,60.0,29.96,SE,135,0.0,0.0,71,0.00,,---,0.00,VWS V13.01,2013-09-01 04:49:00,
2013-09-01 00:54:00,69.8,60.0,29.96,SE,135,0.0,0.0,71,0.00,,---,0.00,VWS V13.01,2013-09-01 04:54:00,
2013-09-01 00:59:00,69.6,60.2,29.96,SE,135,0.0,0.0,72,0.00,,---,0.00,VWS V13.01,2013-09-01 04:59:00,
2013-09-01 01:04:00,69.6,60.2,29.96,SE,135,0.0,0.0,72,0.00,,---,0.00,VWS V13.01,2013-09-01 05:04:00,
2013-09-01 01:09:00,69.6,60.2,29.96,SE,135,0.0,0.0,72,0.00,,---,0.00,VWS V13.01,2013-09-01 05:09:00,
2013-09-01 01:14:00,69.6,60.2,29.96,SE,135,0.0,0.0,72,0.00,,---,0.00,VWS V13.01,2013-09-01 05:14:00,
2013-09-01 01:19:00,69.6,60.2,29.96,SE,135,0.0,0.0,72,0.00,,---,0.00,VWS V13.01,2013-09-01 05:19:00,
2013-09-01 01:24:00,69.6,60.2,29.96,SE,135,0.0,0.0,72,0.00,,---,0.00,VWS V13.01,2013-09-01 05:24:00,
2013-09-01 01:29:00,69.6,60.2,29.96,SE,135,0.0,0.0,72,0.00,,---,0.00,VWS V13.01,2013-09-01 05:29:00,
2013-09-01 01:34:00,69.6,60.2,29.96,SE,135,0.0,0.0,72,0.00,,---,0.00,VWS V13.01,2013-09-01 05:34:00,
2013-09-01 01:39:00,69.4,60.0,29.96,SE,135,0.0,0.0,72,0.00,,---,0.00,VWS V13.01,2013-09-01 05:39:00,
2013-09-01 01:44:00,69.4,60.0,29.96,SE,135,0.0,0.0,72,0.00,,---,0.00,VWS V13.01,2013-09-01 05:44:00,
2013-09-01 01:49:00,69.4,60.0,29.96,SE,135,0.0,0.0,72,0.00,,---,0.00,VWS V13.01,2013-09-01 05:49:00,
2013-09-01 01:54:00,69.4,60.0,29.96,SE,135,0.0,0.0,72,0.00,,---,0.00,VWS V13.01,2013-09-01 05:54:00,
2013-09-01 01:59:00,69.4,60.4,29.96,SE,135,0.0,0.0,73,0.00,,---,0.00,VWS V13.01,2013-09-01 05:59:00,
2013-09-01 02:04:00,69.4,60.4,29.96,SE,135,0.0,0.0,73,0.00,,---,0.00,VWS V13.01,2013-09-01 06:04:00,
2013-09-01 02:09:00,69.4,60.4,29.96,SE,135,0.0,0.0,73,0.00,,---,0.00,VWS V13.01,2013-09-01 06:09:00,
2013-09-01 02:14:00,69.4,60.4,29.96,SE,135,0.0,0.0,73,0.00,,---,0.00,VWS V13.01,2013-09-01 06:14:00,
2013-09-01 02:19:00,69.3,60.2,29.96,SE,135,0.0,0.0,73,0.00,,---,0.00,VWS V13.01,2013-09-01 06:19:00,
2013-09-01 02:24:00,69.3,60.2,29.96,SE,135,0.0,0.0,73,0.00,,---,0.00,VWS V13.01,2013-09-01 06:24:00,
2013-09-01 02:29:00,69.3,60.2,29.96,SE,135,0.0,0.0,73,0.00,,---,0.00,VWS V13.01,2013-09-01 06:29:00,
2013-09-01 02:34:00,69.1,60.1,29.96,SE,135,0.0,0.0,73,0.00,,---,0.00,VWS V13.01,2013-09-01 06:34:00,
2013-09-01 02:39:00,69.1,60.5,29.96,SE,135,0.0,0.0,74,0.00,,---,0.00,VWS V13.01,2013-09-01 06:39:00,
2013-09-01 02:44:00,69.1,60.5,29.96,SE,135,0.0,0.0,74,0.00,,---,0.00,VWS V13.01,2013-09-01 06:44:00,
2013-09-01 02:49:00,69.1,60.8,29.96,SE,135,0.0,0.0,75,0.00,,---,0.00,VWS V13.01,2013-09-01 06:49:00,
2013-09-01 02:54:00,68.9,60.7,29.96,SE,135,0.0,0.0,75,0.00,,---,0.00,VWS V13.01,2013-09-01 06:54:00,
2013-09-01 02:59:00,68.9,61.0,29.96,SE,135,0.0,0.0,76,0.00,,---,0.00,VWS V13.01,2013-09-01 06:59:00,
2013-09-01 03:04:00,68.9,61.0,29.96,SE,135,0.0,0.0,76,0.00,,---,0.00,VWS V13.01,2013-09-01 07:04:00,
2013-09-01 03:09:00,68.7,60.5,29.96,SE,135,0.0,0.0,75,0.00,,---,0.00,VWS V13.01,2013-09-01 07:09:00,
2013-09-01 03:14:00,68.7,60.5,29.96,SE,135,0.0,0.0,75,0.00,,---,0.00,VWS V13.01,2013-09-01 07:14:00,
2013-09-01 03:19:00,68.7,60.9,29.96,SE,135,0.0,0.0,76,0.00,,---,0.00,VWS V13.01,2013-09-01 07:19:00,
2013-09-01 03:24:00,68.7,60.9,29.96,SE,135,0.0,0.0,76,0.00,,---,0.00,VWS V13.01,2013-09-01 07:24:00,
2013-09-01 03:29:00,68.7,60.9,29.96,SE,135,0.0,0.0,76,0.00,,---,0.00,VWS V13.01,2013-09-01 07:29:00,
2013-09-01 03:34:00,68.5,61.0,29.96,SE,135,0.0,0.0,77,0.00,,---,0.00,VWS V13.01,2013-09-01 07:34:00,
2013-09-01 03:39:00,68.5,61.0,29.96,SE,135,0.0,0.0,77,0.00,,---,0.00,VWS V13.01,2013-09-01 07:39:00,
2013-09-01 03:44:00,68.4,60.9,29.96,SE,135,0.0,0.0,77,0.00,,---,0.00,VWS V13.01,2013-09-01 07:44:00,
2013-09-01 03:49:00,68.4,60.9,29.96,SE,135,0.0,0.0,77,0.00,,---,0.00,VWS V13.01,2013-09-01 07:49:00,
2013-09-01 03:54:00,68.4,60.9,29.96,SE,135,0.0,0.0,77,0.00,,---,0.00,VWS V13.01,2013-09-01 07:54:00,
2013-09-01 03:59:00,68.4,60.9,29.96,SE,135,0.0,0.0,77,0.00,,---,0.00,VWS V13.01,2013-09-01 07:59:00,
2013-09-01 04:04:00,68.4,61.2,29.96,SE,135,0.0,0.0,78,0.00,,---,0.00,VWS V13.01,2013-09-01 08:04:00,
2013-09-01 04:09:00,68.2,61.1,29.96,SE,135,0.0,0.0,78,0.00,,---,0.00,VWS V13.01,2013-09-01 08:09:00,
2013-09-01 04:14:00,68.2,61.1,29.96,SE,135,0.0,0.0,78,0.00,,---,0.00,VWS V13.01,2013-09-01 08:14:00,
2013-09-01 04:19:00,68.2,61.1,29.96,SE,135,0.0,0.0,78,0.00,,---,0.00,VWS V13.01,2013-09-01 08:19:00,
2013-09-01 04:24:00,68.2,61.1,29.96,SE,135,0.0,0.0,78,0.00,,---,0.00,VWS V13.01,2013-09-01 08:24:00,
2013-09-01 04:29:00,68.2,61.1,29.96,ESE,106,0.0,0.0,78,0.00,,---,0.00,VWS V13.01,2013-09-01 08:29:00,
2013-09-01 04:34:00,68.2,61.1,29.96,ESE,106,0.0,0.0,78,0.00,,---,0.00,VWS V13.01,2013-09-01 08:34:00,
2013-09-01 04:39:00,68.2,61.1,29.96,ESE,106,0.0,0.0,78,0.00,,---,0.00,VWS V13.01,2013-09-01 08:39:00,
2013-09-01 04:44:00,68.2,61.1,29.96,ESE,106,0.0,0.0,78,0.00,,---,0.00,VWS V13.01,2013-09-01 08:44:00,
2013-09-01 04:49:00,68.2,61.1,29.96,ESE,106,0.0,0.0,78,0.00,,---,0.00,VWS V13.01,2013-09-01 08:49:00,
2013-09-01 04:54:00,68.0,60.9,29.96,ESE,106,0.0,0.0,78,0.00,,---,0.00,VWS V13.01,2013-09-01 08:54:00,
2013-09-01 04:59:00,68.0,60.9,29.96,ESE,106,0.0,0.0,78,0.00,,---,0.00,VWS V13.01,2013-09-01 08:59:00,
2013-09-01 05:04:00,68.0,60.9,29.96,NE,48,0.0,0.0,78,0.00,,---,0.00,VWS V13.01,2013-09-01 09:04:00,
2013-09-01 05:09:00,68.0,60.9,29.96,NE,44,0.0,0.0,78,0.00,,---,0.00,VWS V13.01,2013-09-01 09:09:00,
2013-09-01 05:14:00,68.2,61.1,29.96,NE,44,0.0,0.0,78,0.00,,---,0.00,VWS V13.01,2013-09-01 09:14:00,
2013-09-01 05:19:00,68.0,60.9,29.96,NE,44,0.0,0.0,78,0.00,,---,0.00,VWS V13.01,2013-09-01 09:19:00,
2013-09-01 05:24:00,68.0,60.9,29.96,NE,44,0.0,0.0,78,0.00,,---,0.00,VWS V13.01,2013-09-01 09:24:00,
2013-09-01 05:29:00,68.0,60.9,29.96,NE,44,0.0,0.0,78,0.00,,---,0.00,VWS V13.01,2013-09-01 09:29:00,
2013-09-01 05:34:00,67.8,60.7,29.96,NE,44,0.0,0.0,78,0.00,,---,0.00,VWS V13.01,2013-09-01 09:34:00,
2013-09-01 05:39:00,67.8,60.7,29.96,NE,44,0.0,0.0,78,0.00,,---,0.00,VWS V13.01,2013-09-01 09:39:00,
2013-09-01 05:44:00,67.8,60.7,29.96,NE,44,0.0,0.0,78,0.00,,---,0.00,VWS V13.01,2013-09-01 09:44:00,
2013-09-01 05:49:00,68.0,60.9,29.96,NE,44,0.0,0.0,78,0.00,,---,0.00,VWS V13.01,2013-09-01 09:49:00,
2013-09-01 05:54:00,68.0,60.9,29.96,NE,44,0.0,0.0,78,0.00,,---,0.00,VWS V13.01,2013-09-01 09:54:00,
2013-09-01 05:59:00,68.0,60.9,29.96,NE,44,0.0,0.0,78,0.00,,---,0.00,VWS V13.01,2013-09-01 09:59:00,
2013-09-01 06:04:00,68.0,60.9,29.96,NE,44,0.0,0.0,78,0.00,,---,0.00,VWS V13.01,2013-09-01 10:04:00,
2013-09-01 06:09:00,68.0,60.9,29.96,NE,44,0.0,0.0,78,0.00,,---,0.00,VWS V13.01,2013-09-01 10:09:00,
2013-09-01 06:14:00,68.0,60.9,29.96,NE,44,0.0,0.0,78,0.00,,---,0.00,VWS V13.01,2013-09-01 10:14:00,
2013-09-01 06:19:00,68.0,60.9,29.96,NE,44,0.0,0.0,78,0.00,,---,0.00,VWS V13.01,2013-09-01 10:19:00,
2013-09-01 06:24:00,68.0,60.9,29.96,NE,44,0.0,0.0,78,0.00,,---,0.00,VWS V13.01,2013-09-01 10:24:00,
2013-09-01 06:29:00,68.2,61.1,29.96,NE,44,0.0,0.0,78,0.00,,---,0.00,VWS V13.01,2013-09-01 10:29:00,
2013-09-01 06:34:00,68.2,61.1,29.96,NE,44,0.0,0.0,78,0.00,,---,0.00,VWS V13.01,2013-09-01 10:34:00,
2013-09-01 06:39:00,68.2,61.1,29.96,NE,44,0.0,0.0,78,0.00,,---,0.00,VWS V13.01,2013-09-01 10:39:00,
2013-09-01 06:44:00,68.2,61.1,29.96,North,357,0.0,0.0,78,0.00,,---,0.00,VWS V13.01,2013-09-01 10:44:00,
2013-09-01 06:49:00,68.2,61.1,29.96,North,357,0.0,0.0,78,0.00,,---,0.00,VWS V13.01,2013-09-01 10:49:00,
2013-09-01 06:54:00,68.2,61.1,29.96,North,357,0.0,0.0,78,0.00,,---,0.00,VWS V13.01,2013-09-01 10:54:00,
2013-09-01 06:59:00,68.2,61.1,29.96,North,357,0.0,0.0,78,0.00,,---,0.00,VWS V13.01,2013-09-01 10:59:00,
2013-09-01 07:04:00,68.2,61.1,29.96,North,357,0.0,0.0,78,0.00,,---,0.00,VWS V13.01,2013-09-01 11:04:00,
2013-09-01 07:09:00,68.2,61.1,29.96,NNE,13,0.0,0.0,78,0.00,,---,0.00,VWS V13.01,2013-09-01 11:09:00,
2013-09-01 07:14:00,68.2,61.1,29.96,NNE,13,0.0,0.0,78,0.00,,---,0.00,VWS V13.01,2013-09-01 11:14:00,
2013-09-01 07:19:00,68.4,61.2,29.96,NNE,13,0.0,0.0,78,0.00,,---,0.00,VWS V13.01,2013-09-01 11:19:00,
2013-09-01 07:24:00,68.4,61.6,29.96,NNE,13,0.0,0.0,79,0.00,,---,0.00,VWS V13.01,2013-09-01 11:24:00,
2013-09-01 07:29:00,68.4,61.6,29.96,NNE,13,0.0,0.0,79,0.00,,---,0.00,VWS V13.01,2013-09-01 11:29:00,
2013-09-01 07:34:00,68.4,61.6,29.96,NNE,13,0.0,0.0,79,0.00,,---,0.00,VWS V13.01,2013-09-01 11:34:00,
2013-09-01 07:39:00,68.5,61.8,29.96,NNE,13,0.0,0.0,79,0.00,,---,0.00,VWS V13.01,2013-09-01 11:39:00,
2013-09-01 07:44:00,68.5,61.8,29.96,NNE,13,0.0,0.0,79,0.00,,---,0.00,VWS V13.01,2013-09-01 11:44:00,
2013-09-01 07:49:00,68.7,62.0,29.96,NNE,13,0.0,0.0,79,0.00,,---,0.00,VWS V13.01,2013-09-01 11:49:00,
2013-09-01 07:54:00,68.7,62.0,29.96,NNE,13,0.0,0.0,79,0.00,,---,0.00,VWS V13.01,2013-09-01 11:54:00,
2013-09-01 07:59:00,68.9,62.1,29.96,NNW,345,0.0,0.0,79,0.00,,---,0.00,VWS V13.01,2013-09-01 11:59:00,
2013-09-01 08:04:00,68.9,62.5,29.96,NNW,345,0.0,0.0,80,0.00,,---,0.00,VWS V13.01,2013-09-01 12:04:00,
2013-09-01 08:09:00,68.9,62.5,29.96,NNW,345,0.0,0.0,80,0.00,,---,0.00,VWS V13.01,2013-09-01 12:09:00,
2013-09-01 08:14:00,69.1,62.7,29.96,NNW,345,0.0,0.0,80,0.00,,---,0.00,VWS V13.01,2013-09-01 12:14:00,
2013-09-01 08:19:00,69.3,62.8,29.96,NNW,345,0.0,0.0,80,0.00,,---,0.00,VWS V13.01,2013-09-01 12:19:00,
2013-09-01 08:24:00,69.3,62.8,29.96,NNW,345,0.0,0.0,80,0.00,,---,0.00,VWS V13.01,2013-09-01 12:24:00,
2013-09-01 08:29:00,69.4,63.0,29.96,NNW,345,0.0,0.0,80,0.00,,---,0.00,VWS V13.01,2013-09-01 12:29:00,
2013-09-01 08:34:00,69.6,63.2,29.96,NNW,345,0.0,0.0,80,0.00,,---,0.00,VWS V13.01,2013-09-01 12:34:00,
2013-09-01 08:39:00,69.8,63.4,29.96,NNW,345,0.0,0.0,80,0.00,,---,0.00,VWS V13.01,2013-09-01 12:39:00,
2013-09-01 08:44:00,70.0,63.5,29.96,NNW,345,0.0,0.0,80,0.00,,---,0.00,VWS V13.01,2013-09-01 12:44:00,
2013-09-01 08:49:00,70.2,63.7,29.96,NNW,345,0.0,0.0,80,0.00,,---,0.00,VWS V13.01,2013-09-01 12:49:00,
2013-09-01 08:54:00,70.3,63.9,29.96,NNW,345,0.0,0.0,80,0.00,,---,0.00,VWS V13.01,2013-09-01 12:54:00,
2013-09-01 08:59:00,70.5,64.1,29.96,NNW,345,0.0,0.0,80,0.00,,---,0.00,VWS V13.01,2013-09-01 12:59:00,
2013-09-01 09:04:00,70.7,64.2,29.96,NNW,329,0.0,0.0,80,0.00,,---,0.00,VWS V13.01,2013-09-01 13:04:00,
2013-09-01 09:09:00,70.7,64.2,29.96,NNW,329,0.0,0.0,80,0.00,,---,0.00,VWS V13.01,2013-09-01 13:09:00,
2013-09-01 09:14:00,71.2,64.8,29.96,North,357,0.0,0.0,80,0.00,,---,0.00,VWS V13.01,2013-09-01 13:14:00,
2013-09-01 09:19:00,71.4,64.9,29.96,North,357,0.0,0.0,80,0.00,,---,0.00,VWS V13.01,2013-09-01 13:19:00,
2013-09-01 09:24:00,71.4,64.9,29.96,North,357,0.0,0.0,80,0.00,,---,0.00,VWS V13.01,2013-09-01 13:24:00,
2013-09-01 09:29:00,71.6,64.8,29.96,North,357,0.0,0.0,79,0.00,,---,0.00,VWS V13.01,2013-09-01 13:29:00,
2013-09-01 09:34:00,71.6,64.8,29.96,North,357,0.0,0.0,79,0.00,,---,0.00,VWS V13.01,2013-09-01 13:34:00,
2013-09-01 09:39:00,71.8,64.9,29.96,ESE,113,0.0,0.0,79,0.00,,---,0.00,VWS V13.01,2013-09-01 13:39:00,
2013-09-01 09:44:00,71.8,64.9,29.96,ESE,113,0.0,0.0,79,0.00,,---,0.00,VWS V13.01,2013-09-01 13:44:00,
2013-09-01 09:49:00,72.1,65.3,29.96,ESE,108,0.0,0.0,79,0.00,,---,0.00,VWS V13.01,2013-09-01 13:49:00,
2013-09-01 09:54:00,72.1,65.3,29.96,NNW,341,0.0,0.0,79,0.00,,---,0.00,VWS V13.01,2013-09-01 13:54:00,
2013-09-01 09:59:00,72.1,64.9,29.96,NNW,341,0.0,0.0,78,0.00,,---,0.00,VWS V13.01,2013-09-01 13:59:00,
2013-09-01 10:04:00,72.3,65.1,29.96,NE,52,0.0,0.0,78,0.00,,---,0.00,VWS V13.01,2013-09-01 14:04:00,
2013-09-01 10:09:00,72.3,65.1,29.96,NNE,33,0.0,0.0,78,0.00,,---,0.00,VWS V13.01,2013-09-01 14:09:00,
2013-09-01 10:14:00,72.9,65.6,29.96,NNW,335,0.0,0.0,78,0.00,,---,0.00,VWS V13.01,2013-09-01 14:14:00,
2013-09-01 10:19:00,73.0,65.8,29.96,NNW,335,0.0,0.0,78,0.00,,---,0.00,VWS V13.01,2013-09-01 14:19:00,
2013-09-01 10:24:00,73.4,65.8,29.96,NNW,335,0.0,0.0,77,0.00,,---,0.00,VWS V13.01,2013-09-01 14:24:00,
2013-09-01 10:29:00,73.6,65.9,29.96,NNW,335,0.0,0.0,77,0.00,,---,0.00,VWS V13.01,2013-09-01 14:29:00,
2013-09-01 10:34:00,74.1,66.5,29.96,NNW,335,0.0,0.0,77,0.00,,---,0.00,VWS V13.01,2013-09-01 14:34:00,
2013-09-01 10:39:00,74.5,66.4,29.96,NNW,335,0.0,0.0,76,0.00,,---,0.00,VWS V13.01,2013-09-01 14:39:00,
2013-09-01 10:44:00,74.8,66.8,29.96,NNW,335,0.0,0.0,76,0.00,,---,0.00,VWS V13.01,2013-09-01 14:44:00,
2013-09-01 10:49:00,75.2,66.3,29.96,NNW,335,0.0,0.0,74,0.00,,---,0.00,VWS V13.01,2013-09-01 14:49:00,
2013-09-01 10:54:00,75.4,66.1,29.96,South,179,0.0,0.0,73,0.00,,---,0.00,VWS V13.01,2013-09-01 14:54:00,
2013-09-01 10:59:00,75.7,66.1,29.96,South,169,0.0,0.0,72,0.00,,---,0.00,VWS V13.01,2013-09-01 14:59:00,
2013-09-01 11:04:00,76.5,66.8,29.96,North,353,0.0,0.0,72,0.00,,---,0.00,VWS V13.01,2013-09-01 15:04:00,
2013-09-01 11:09:00,77.0,66.5,29.96,North,357,0.0,0.0,70,0.00,,---,0.00,VWS V13.01,2013-09-01 15:09:00,
2013-09-01 11:14:00,77.4,66.4,29.96,North,357,0.0,0.0,69,0.00,,---,0.00,VWS V13.01,2013-09-01 15:14:00,
2013-09-01 11:19:00,77.9,66.5,29.96,SW,227,0.0,0.0,68,0.00,,---,0.00,VWS V13.01,2013-09-01 15:19:00,
2013-09-01 11:24:00,78.4,65.7,29.96,SW,225,0.0,0.0,65,0.00,,---,0.00,VWS V13.01,2013-09-01 15:24:00,
2013-09-01 11:29:00,79.3,66.1,29.96,North,0,0.0,0.0,64,0.00,,---,0.00,VWS V13.01,2013-09-01 15:29:00,
2013-09-01 11:34:00,79.7,64.6,29.96,North,1,0.0,0.0,60,0.00,,---,0.00,VWS V13.01,2013-09-01 15:34:00,
2013-09-01 11:39:00,79.3,63.3,29.96,NE,47,0.0,0.0,58,0.00,,---,0.00,VWS V13.01,2013-09-01 15:39:00,
2013-09-01 11:44:00,79.3,63.3,29.96,East,88,0.0,0.0,58,0.00,,---,0.00,VWS V13.01,2013-09-01 15:44:00,
2013-09-01 11:49:00,79.3,63.3,29.96,NE,41,0.0,0.0,58,0.00,,---,0.00,VWS V13.01,2013-09-01 15:49:00,
2013-09-01 11:54:00,79.5,63.5,29.96,North,353,0.0,0.0,58,0.00,,---,0.00,VWS V13.01,2013-09-01 15:54:00,
2013-09-01 11:59:00,80.2,64.1,29.96,NNW,336,0.0,0.0,58,0.00,,---,0.00,VWS V13.01,2013-09-01 15:59:00,
2013-09-01 12:04:00,81.1,64.0,29.96,North,0,0.0,0.0,56,0.00,,---,0.00,VWS V13.01,2013-09-01 16:04:00,
2013-09-01 12:09:00,81.3,63.6,29.96,North,0,0.0,0.0,55,0.00,,---,0.00,VWS V13.01,2013-09-01 16:09:00,
2013-09-01 12:14:00,82.4,64.1,29.96,North,0,0.0,0.0,54,0.00,,---,0.00,VWS V13.01,2013-09-01 16:14:00,
2013-09-01 12:19:00,82.6,63.7,29.96,North,357,0.0,0.0,53,0.00,,---,0.00,VWS V13.01,2013-09-01 16:19:00,
2013-09-01 12:24:00,83.1,63.1,29.96,NNE,27,0.0,0.0,51,0.00,,---,0.00,VWS V13.01,2013-09-01 16:24:00,
2013-09-01 12:29:00,83.7,62.5,29.96,North,357,3.1,4.0,49,0.00,,---,0.00,VWS V13.01,2013-09-01 16:29:00,
2013-09-01 12:34:00,83.7,61.9,29.96,North,4,2.2,2.2,48,0.00,,---,0.00,VWS V13.01,2013-09-01 16:34:00,
2013-09-01 12:39:00,84.0,61.6,29.96,North,357,3.1,3.1,47,0.00,,---,0.00,VWS V13.01,2013-09-01 16:39:00,
2013-09-01 12:44:00,84.4,60.7,29.96,North,0,2.7,2.7,45,0.00,,---,0.00,VWS V13.01,2013-09-01 16:44:00,
2013-09-01 12:49:00,84.7,59.8,29.96,North,357,0.0,3.1,43,0.00,,---,0.00,VWS V13.01,2013-09-01 16:49:00,
2013-09-01 12:54:00,84.7,59.8,29.96,North,357,0.0,0.0,43,0.00,,---,0.00,VWS V13.01,2013-09-01 16:54:00,
2013-09-01 12:59:00,84.9,60.0,29.96,NE,56,0.0,0.0,43,0.00,,---,0.00,VWS V13.01,2013-09-01 16:59:00,
2013-09-01 13:04:00,85.3,60.3,29.96,North,8,0.0,0.0,43,0.00,,---,0.00,VWS V13.01,2013-09-01 17:04:00,
2013-09-01 13:09:00,86.0,59.6,29.96,North,0,2.7,2.7,41,0.00,,---,0.00,VWS V13.01,2013-09-01 17:09:00,
2013-09-01 13:14:00,86.0,58.9,29.96,North,357,2.7,2.7,40,0.00,,---,0.00,VWS V13.01,2013-09-01 17:14:00,
2013-09-01 13:19:00,85.8,58.7,29.96,North,357,0.0,0.0,40,0.00,,---,0.00,VWS V13.01,2013-09-01 17:19:00,
2013-09-01 13:24:00,85.5,59.1,29.96,North,357,0.0,0.0,41,0.00,,---,0.00,VWS V13.01,2013-09-01 17:24:00,
2013-09-01 13:29:00,84.9,59.3,29.96,North,357,0.0,0.0,42,0.00,,---,0.00,VWS V13.01,2013-09-01 17:29:00,
2013-09-01 13:34:00,84.7,59.1,29.96,SSE,156,0.0,0.0,42,0.00,,---,0.00,VWS V13.01,2013-09-01 17:34:00,
2013-09-01 13:39:00,84.9,59.3,29.96,North,9,0.0,0.0,42,0.00,,---,0.00,VWS V13.01,2013-09-01 17:39:00,
2013-09-01 13:44:00,84.9,59.3,29.96,SSW,210,0.0,0.0,42,0.00,,---,0.00,VWS V13.01,2013-09-01 17:44:00,
2013-09-01 13:49:00,85.5,59.1,29.96,North,357,0.0,0.0,41,0.00,,---,0.00,VWS V13.01,2013-09-01 17:49:00,
2013-09-01 13:54:00,86.0,60.3,29.96,North,357,0.0,0.0,42,0.00,,---,0.00,VWS V13.01,2013-09-01 17:54:00,
2013-09-01 13:59:00,86.4,59.9,29.96,NNW,345,4.0,4.0,41,0.00,,---,0.00,VWS V13.01,2013-09-01 17:59:00,
2013-09-01 14:04:00,86.2,58.3,29.96,North,357,0.0,0.0,39,0.00,,---,0.00,VWS V13.01,2013-09-01 18:04:00,
2013-09-01 14:09:00,85.8,58.7,29.96,North,0,0.0,0.0,40,0.00,,---,0.00,VWS V13.01,2013-09-01 18:09:00,
2013-09-01 14:14:00,85.5,58.4,29.96,NNE,12,0.0,0.0,40,0.00,,---,0.00,VWS V13.01,2013-09-01 18:14:00,
2013-09-01 14:19:00,85.3,58.2,29.96,NNE,12,0.0,0.0,40,0.00,,---,0.00,VWS V13.01,2013-09-01 18:19:00,
2013-09-01 14:24:00,85.3,58.9,29.96,North,4,2.7,2.7,41,0.00,,---,0.00,VWS V13.01,2013-09-01 18:24:00,
2013-09-01 14:29:00,85.3,58.9,29.96,SSE,155,0.0,0.0,41,0.00,,---,0.00,VWS V13.01,2013-09-01 18:29:00,
2013-09-01 14:34:00,85.5,59.1,29.96,SE,142,0.0,0.0,41,0.00,,---,0.00,VWS V13.01,2013-09-01 18:34:00,
2013-09-01 14:39:00,85.8,58.0,29.96,South,171,0.0,0.0,39,0.00,,---,0.00,VWS V13.01,2013-09-01 18:39:00,
2013-09-01 14:44:00,85.8,58.0,29.96,ESE,123,0.0,0.0,39,0.00,,---,0.00,VWS V13.01,2013-09-01 18:44:00,
2013-09-01 14:49:00,86.7,58.8,29.96,SE,140,2.2,2.7,39,0.00,,---,0.00,VWS V13.01,2013-09-01 18:49:00,
2013-09-01 14:54:00,87.1,57.7,29.96,NNW,346,0.0,0.0,37,0.00,,---,0.00,VWS V13.01,2013-09-01 18:54:00,
2013-09-01 14:59:00,87.3,57.8,29.96,NNE,20,3.1,3.1,37,0.00,,---,0.00,VWS V13.01,2013-09-01 18:59:00,
2013-09-01 15:04:00,87.3,57.1,29.96,NNE,20,0.0,0.0,36,0.00,,---,0.00,VWS V13.01,2013-09-01 19:04:00,
2013-09-01 15:09:00,87.4,58.0,29.96,NNW,346,0.0,0.0,37,0.00,,---,0.00,VWS V13.01,2013-09-01 19:09:00,
2013-09-01 15:14:00,88.0,56.1,29.96,NNW,334,0.0,0.0,34,0.00,,---,0.00,VWS V13.01,2013-09-01 19:14:00,
2013-09-01 15:19:00,88.2,54.6,29.96,NW,323,0.0,0.0,32,0.00,,---,0.00,VWS V13.01,2013-09-01 19:19:00,
2013-09-01 15:24:00,88.3,53.9,29.96,SSW,196,0.0,0.0,31,0.00,,---,0.00,VWS V13.01,2013-09-01 19:24:00,
2013-09-01 15:29:00,88.2,55.5,29.96,North,349,0.0,2.2,33,0.00,,---,0.00,VWS V13.01,2013-09-01 19:29:00,
2013-09-01 15:34:00,88.0,54.5,29.96,North,349,0.0,0.0,32,0.00,,---,0.00,VWS V13.01,2013-09-01 19:34:00,
2013-09-01 15:39:00,87.4,54.8,29.96,NNW,339,0.0,0.0,33,0.00,,---,0.00,VWS V13.01,2013-09-01 19:39:00,
2013-09-01 15:44:00,87.1,55.3,29.96,NNW,339,0.0,0.0,34,0.00,,---,0.00,VWS V13.01,2013-09-01 19:44:00,
2013-09-01 15:49:00,87.1,56.1,29.96,ESE,102,0.0,0.0,35,0.00,,---,0.00,VWS V13.01,2013-09-01 19:49:00,
2013-09-01 15:54:00,87.1,56.9,29.96,SSE,149,0.0,0.0,36,0.00,,---,0.00,VWS V13.01,2013-09-01 19:54:00,
2013-09-01 15:59:00,86.7,55.8,29.96,SSE,149,0.0,0.0,35,0.00,,---,0.00,VWS V13.01,2013-09-01 19:59:00,
2013-09-01 16:04:00,86.7,55.8,29.96,SSE,149,0.0,0.0,35,0.00,,---,0.00,VWS V13.01,2013-09-01 20:04:00,
2013-09-01 16:09:00,86.4,57.0,29.96,SSW,210,0.0,0.0,37,0.00,,---,0.00,VWS V13.01,2013-09-01 20:09:00,
2013-09-01 16:14:00,85.8,55.8,29.96,WSW,245,0.0,0.0,36,0.00,,---,0.00,VWS V13.01,2013-09-01 20:14:00,
2013-09-01 16:19:00,85.8,55.8,29.96,WSW,239,0.0,0.0,36,0.00,,---,0.00,VWS V13.01,2013-09-01 20:19:00,
2013-09-01 16:24:00,85.8,55.8,29.96,SSE,162,0.0,0.0,36,0.00,,---,0.00,VWS V13.01,2013-09-01 20:24:00,
2013-09-01 16:29:00,85.5,57.0,29.96,SSE,158,0.0,0.0,38,0.00,,---,0.00,VWS V13.01,2013-09-01 20:29:00,
2013-09-01 16:34:00,84.9,56.5,29.96,East,98,0.0,0.0,38,0.00,,---,0.00,VWS V13.01,2013-09-01 20:34:00,
2013-09-01 16:39:00,84.7,57.1,29.96,SE,127,0.0,0.0,39,0.00,,---,0.00,VWS V13.01,2013-09-01 20:39:00,
2013-09-01 16:44:00,84.7,57.1,29.96,SSE,156,0.0,0.0,39,0.00,,---,0.00,VWS V13.01,2013-09-01 20:44:00,
2013-09-01 16:49:00,84.7,57.8,29.96,SE,128,0.0,0.0,40,0.00,,---,0.00,VWS V13.01,2013-09-01 20:49:00,
2013-09-01 16:54:00,84.9,57.9,29.96,South,171,2.7,2.7,40,0.00,,---,0.00,VWS V13.01,2013-09-01 20:54:00,
2013-09-01 16:59:00,84.9,57.9,29.96,SSE,157,0.0,2.2,40,0.00,,---,0.00,VWS V13.01,2013-09-01 20:59:00,
2013-09-01 17:04:00,84.6,56.2,29.96,SE,124,2.2,2.2,38,0.00,,---,0.00,VWS V13.01,2013-09-01 21:04:00,
2013-09-01 17:09:00,84.2,56.6,29.96,SSE,158,0.0,0.0,39,0.00,,---,0.00,VWS V13.01,2013-09-01 21:09:00,
2013-09-01 17:14:00,84.0,57.1,29.96,ESE,117,2.2,2.2,40,0.00,,---,0.00,VWS V13.01,2013-09-01 21:14:00,
2013-09-01 17:19:00,84.4,57.5,29.96,ESE,114,0.0,0.0,40,0.00,,---,0.00,VWS V13.01,2013-09-01 21:19:00,
2013-09-01 17:24:00,84.4,57.5,29.96,SE,132,0.0,0.0,40,0.00,,---,0.00,VWS V13.01,2013-09-01 21:24:00,
2013-09-01 17:29:00,84.2,58.0,29.96,SSE,167,0.0,0.0,41,0.00,,---,0.00,VWS V13.01,2013-09-01 21:29:00,
2013-09-01 17:34:00,84.2,58.0,29.96,SE,146,0.0,0.0,41,0.00,,---,0.00,VWS V13.01,2013-09-01 21:34:00,
2013-09-01 17:39:00,83.7,58.2,29.96,SSE,168,0.0,0.0,42,0.00,,---,0.00,VWS V13.01,2013-09-01 21:39:00,
2013-09-01 17:44:00,83.3,57.8,29.96,SSE,168,0.0,0.0,42,0.00,,---,0.00,VWS V13.01,2013-09-01 21:44:00,
2013-09-01 17:49:00,82.8,58.0,29.96,South,183,0.0,0.0,43,0.00,,---,0.00,VWS V13.01,2013-09-01 21:49:00,
2013-09-01 17:54:00,82.4,57.7,29.96,South,183,0.0,0.0,43,0.00,,---,0.00,VWS V13.01,2013-09-01 21:54:00,
2013-09-01 17:59:00,82.0,58.6,29.96,South,183,0.0,0.0,45,0.00,,---,0.00,VWS V13.01,2013-09-01 21:59:00,
2013-09-01 18:04:00,81.9,59.1,29.96,South,183,0.0,0.0,46,0.00,,---,0.00,VWS V13.01,2013-09-01 22:04:00,
2013-09-01 18:09:00,81.7,59.5,29.96,SE,124,0.0,0.0,47,0.00,,---,0.00,VWS V13.01,2013-09-01 22:09:00,
2013-09-01 18:14:00,81.3,59.8,29.96,West,261,0.0,0.0,48,0.00,,---,0.00,VWS V13.01,2013-09-01 22:14:00,
2013-09-01 18:19:00,81.1,59.0,29.96,SSE,161,0.0,0.0,47,0.00,,---,0.00,VWS V13.01,2013-09-01 22:19:00,
2013-09-01 18:24:00,81.0,58.9,29.96,SSE,158,0.0,0.0,47,0.00,,---,0.00,VWS V13.01,2013-09-01 22:24:00,
2013-09-01 18:29:00,81.0,58.9,29.96,SSE,158,0.0,0.0,47,0.00,,---,0.00,VWS V13.01,2013-09-01 22:29:00,
2013-09-01 18:34:00,80.8,57.5,29.96,SSE,158,0.0,0.0,45,0.00,,---,0.00,VWS V13.01,2013-09-01 22:34:00,
2013-09-01 18:39:00,80.6,56.7,29.96,SSE,158,0.0,0.0,44,0.00,,---,0.00,VWS V13.01,2013-09-01 22:39:00,
2013-09-01 18:44:00,80.4,57.8,29.96,SSE,159,0.0,0.0,46,0.00,,---,0.00,VWS V13.01,2013-09-01 22:44:00,
2013-09-01 18:49:00,80.1,58.0,29.96,North,6,0.0,0.0,47,0.00,,---,0.00,VWS V13.01,2013-09-01 22:49:00,
2013-09-01 18:54:00,80.1,58.0,29.96,North,6,0.0,0.0,47,0.00,,---,0.00,VWS V13.01,2013-09-01 22:54:00,
2013-09-01 18:59:00,79.5,58.7,29.96,NE,40,0.0,0.0,49,0.00,,---,0.00,VWS V13.01,2013-09-01 22:59:00,
2013-09-01 19:04:00,79.2,58.4,29.96,NNE,17,0.0,0.0,49,0.00,,---,0.00,VWS V13.01,2013-09-01 23:04:00,
2013-09-01 19:09:00,78.6,59.0,29.96,NNE,16,3.6,3.6,51,0.00,,---,0.00,VWS V13.01,2013-09-01 23:09:00,
2013-09-01 19:14:00,78.4,58.8,29.96,NNE,16,0.0,0.0,51,0.00,,---,0.00,VWS V13.01,2013-09-01 23:14:00,
2013-09-01 19:19:00,77.4,58.4,29.96,North,353,0.0,0.0,52,0.00,,---,0.00,VWS V13.01,2013-09-01 23:19:00,
2013-09-01 19:24:00,76.8,59.5,29.96,East,81,0.0,0.0,55,0.00,,---,0.00,VWS V13.01,2013-09-01 23:24:00,
2013-09-01 19:29:00,76.6,59.8,29.96,NNE,12,0.0,0.0,56,0.00,,---,0.00,VWS V13.01,2013-09-01 23:29:00,
2013-09-01 19:34:00,76.3,60.0,29.96,NNE,12,0.0,0.0,57,0.00,,---,0.00,VWS V13.01,2013-09-01 23:34:00,
2013-09-01 19:39:00,76.1,59.8,29.96,NE,43,0.0,0.0,57,0.00,,---,0.00,VWS V13.01,2013-09-01 23:39:00,
2013-09-01 19:44:00,75.9,59.6,29.96,NE,45,0.0,0.0,57,0.00,,---,0.00,VWS V13.01,2013-09-01 23:44:00,
2013-09-01 19:49:00,75.7,59.9,29.96,NE,41,0.0,0.0,58,0.00,,---,0.00,VWS V13.01,2013-09-01 23:49:00,
2013-09-01 19:54:00,75.6,59.8,29.96,NE,41,0.0,0.0,58,0.00,,---,0.00,VWS V13.01,2013-09-01 23:54:00,
2013-09-01 19:59:00,75.4,59.1,29.96,NE,41,0.0,0.0,57,0.00,,---,0.00,VWS V13.01,2013-09-01 23:59:00,
2013-09-01 20:04:00,75.2,58.9,29.96,NE,41,0.0,0.0,57,0.00,,---,0.00,VWS V13.01,2013-09-02 00:04:00,
2013-09-01 20:09:00,75.2,58.9,29.96,ESE,114,0.0,0.0,57,0.00,,---,0.00,VWS V13.01,2013-09-02 00:09:00,
2013-09-01 20:14:00,75.0,59.3,29.96,ESE,114,0.0,0.0,58,0.00,,---,0.00,VWS V13.01,2013-09-02 00:14:00,
2013-09-01 20:19:00,74.8,59.1,29.96,East,82,0.0,0.0,58,0.00,,---,0.00,VWS V13.01,2013-09-02 00:19:00,
2013-09-01 20:24:00,74.7,59.4,29.96,NNE,25,0.0,0.0,59,0.00,,---,0.00,VWS V13.01,2013-09-02 00:24:00,
2013-09-01 20:29:00,74.7,59.4,29.96,NNE,24,0.0,0.0,59,0.00,,---,0.00,VWS V13.01,2013-09-02 00:29:00,
2013-09-01 20:34:00,74.3,59.5,29.96,North,357,0.0,0.0,60,0.00,,---,0.00,VWS V13.01,2013-09-02 00:34:00,
2013-09-01 20:39:00,74.3,59.5,29.96,North,357,0.0,0.0,60,0.00,,---,0.00,VWS V13.01,2013-09-02 00:39:00,
2013-09-01 20:44:00,74.1,59.8,29.96,North,357,0.0,0.0,61,0.00,,---,0.00,VWS V13.01,2013-09-02 00:44:00,
2013-09-01 20:49:00,74.1,59.8,29.96,North,357,0.0,0.0,61,0.00,,---,0.00,VWS V13.01,2013-09-02 00:49:00,
2013-09-01 20:54:00,74.1,59.8,29.96,North,357,0.0,0.0,61,0.00,,---,0.00,VWS V13.01,2013-09-02 00:54:00,
2013-09-01 20:59:00,73.9,59.7,29.96,North,357,0.0,0.0,61,0.00,,---,0.00,VWS V13.01,2013-09-02 00:59:00,
2013-09-01 21:04:00,73.9,60.1,29.96,North,357,0.0,0.0,62,0.00,,---,0.00,VWS V13.01,2013-09-02 01:04:00,
2013-09-01 21:09:00,73.9,60.1,29.96,North,357,0.0,0.0,62,0.00,,---,0.00,VWS V13.01,2013-09-02 01:09:00,
2013-09-01 21:14:00,73.9,60.6,29.96,North,357,0.0,0.0,63,0.00,,---,0.00,VWS V13.01,2013-09-02 01:14:00,
2013-09-01 21:19:00,73.8,59.9,29.96,North,357,0.0,0.0,62,0.00,,---,0.00,VWS V13.01,2013-09-02 01:19:00,
2013-09-01 21:24:00,73.8,59.9,29.96,North,357,0.0,0.0,62,0.00,,---,0.00,VWS V13.01,2013-09-02 01:24:00,
2013-09-01 21:29:00,73.8,59.9,29.96,North,357,0.0,0.0,62,0.00,,---,0.00,VWS V13.01,2013-09-02 01:29:00,
2013-09-01 21:34:00,73.6,60.2,29.96,North,357,0.0,0.0,63,0.00,,---,0.00,VWS V13.01,2013-09-02 01:34:00,
2013-09-01 21:39:00,73.6,60.2,29.96,North,357,0.0,0.0,63,0.00,,---,0.00,VWS V13.01,2013-09-02 01:39:00,
2013-09-01 21:44:00,73.4,60.0,29.96,North,6,0.0,0.0,63,0.00,,---,0.00,VWS V13.01,2013-09-02 01:44:00,
2013-09-01 21:49:00,73.4,60.0,29.96,North,6,0.0,0.0,63,0.00,,---,0.00,VWS V13.01,2013-09-02 01:49:00,
2013-09-01 21:54:00,73.2,60.3,29.96,North,6,0.0,0.0,64,0.00,,---,0.00,VWS V13.01,2013-09-02 01:54:00,
2013-09-01 21:59:00,73.2,60.3,29.96,North,6,0.0,0.0,64,0.00,,---,0.00,VWS V13.01,2013-09-02 01:59:00,
2013-09-01 22:04:00,73.0,60.2,29.96,North,6,0.0,0.0,64,0.00,,---,0.00,VWS V13.01,2013-09-02 02:04:00,
2013-09-01 22:09:00,73.0,60.6,29.96,North,6,0.0,0.0,65,0.00,,---,0.00,VWS V13.01,2013-09-02 02:09:00,
2013-09-01 22:14:00,73.0,60.6,29.96,North,6,0.0,0.0,65,0.00,,---,0.00,VWS V13.01,2013-09-02 02:14:00,
2013-09-01 22:19:00,72.9,60.0,29.96,North,6,0.0,0.0,64,0.00,,---,0.00,VWS V13.01,2013-09-02 02:19:00,
2013-09-01 22:24:00,72.9,60.4,29.96,North,6,0.0,0.0,65,0.00,,---,0.00,VWS V13.01,2013-09-02 02:24:00,
2013-09-01 22:29:00,72.9,60.0,29.96,North,6,0.0,0.0,64,0.00,,---,0.00,VWS V13.01,2013-09-02 02:29:00,
2013-09-01 22:34:00,72.7,59.8,29.96,North,6,0.0,0.0,64,0.00,,---,0.00,VWS V13.01,2013-09-02 02:34:00,
2013-09-01 22:39:00,72.7,59.8,29.96,North,6,0.0,0.0,64,0.00,,---,0.00,VWS V13.01,2013-09-02 02:39:00,
2013-09-01 22:44:00,72.5,60.1,29.96,North,6,0.0,0.0,65,0.00,,---,0.00,VWS V13.01,2013-09-02 02:44:00,
2013-09-01 22:49:00,72.5,60.1,29.96,North,6,0.0,0.0,65,0.00,,---,0.00,VWS V13.01,2013-09-02 02:49:00,
2013-09-01 22:54:00,72.3,59.9,29.96,North,6,0.0,0.0,65,0.00,,---,0.00,VWS V13.01,2013-09-02 02:54:00,
2013-09-01 22:59:00,72.3,59.9,29.96,North,6,0.0,0.0,65,0.00,,---,0.00,VWS V13.01,2013-09-02 02:59:00,
2013-09-01 23:04:00,72.1,59.7,29.96,North,6,0.0,0.0,65,0.00,,---,0.00,VWS V13.01,2013-09-02 03:04:00,
2013-09-01 23:09:00,72.1,59.7,29.96,North,6,0.0,0.0,65,0.00,,---,0.00,VWS V13.01,2013-09-02 03:09:00,
2013-09-01 23:14:00,72.1,59.3,29.96,North,6,0.0,0.0,64,0.00,,---,0.00,VWS V13.01,2013-09-02 03:14:00,
2013-09-01 23:19:00,72.0,59.1,29.96,North,6,0.0,0.0,64,0.00,,---,0.00,VWS V13.01,2013-09-02 03:19:00,
2013-09-01 23:24:00,72.0,59.6,29.96,North,6,0.0,0.0,65,0.00,,---,0.00,VWS V13.01,2013-09-02 03:24:00,
2013-09-01 23:29:00,72.0,59.6,29.96,North,6,0.0,0.0,65,0.00,,---,0.00,VWS V13.01,2013-09-02 03:29:00,
2013-09-01 23:34:00,72.0,59.6,29.96,North,6,0.0,0.0,65,0.00,,---,0.00,VWS V13.01,2013-09-02 03:34:00,
2013-09-01 23:39:00,71.8,59.4,29.96,North,6,0.0,0.0,65,0.00,,---,0.00,VWS V13.01,2013-09-02 03:39:00,
2013-09-01 23:45:00,71.8,59.4,29.96,North,6,0.0,0.0,65,0.00,,---,0.00,VWS V13.01,2013-09-02 03:45:00,
2013-09-01 23:50:00,71.8,59.4,29.96,North,6,0.0,0.0,65,0.00,,---,0.00,VWS V13.01,2013-09-02 03:50:00,
2013-09-01 23:54:00,71.6,59.2,29.96,North,6,0.0,0.0,65,0.00,,---,0.00,VWS V13.01,2013-09-02 03:54:00,
2013-09-01 23:59:00,71.6,59.7,29.96,North,6,0.0,0.0,66,0.00,,---,0.00,VWS V13.01,2013-09-02 03:59:00,